EBBR

Brussels Airport

Airport
ICAO code
EBBR
IATA Code
BRU
Summary
ICAO Region
EUR
ICAO Territory
Location

Zaventem Diegem, Machelen,

Serving
Brussel
Elevation
184 ft
Coordinates
50° 53' 56" N , 4° 29' 9" E
KCC
Airport BS
Bird Strike
Metar
EBBR 041050Z 27003KT 220V030 9999 FEW026 10/04 Q1013 NOSIG

Description

International airport serving the capital of Belgium.

Climatology

Temperate Marine climate/Oceanic climate (Köppen climate classification Cfb) - Moderately cool summer and comparatively warm winter.

Runways

Designator Length Width Surface Rops
2/20 2987 50 ASP Yes/Yes
07R/25L 3211 45 ASP Yes/Yes
07L/25R 3638 45 CON Yes/Yes

SKYbrary Partners:

Safety knowledge contributed by: